Location: *
(60.1759°S, 155.0663°W)
Time: 02:08:55
(UTC+00:00)

IRS-1C Rocket - Pass Details

Date: 17 September 2019
Orbit: 801 x 805 km, 99.0° (Epoch: 19 October)

Event Time Altitude Azimuth Distance (km) Brightness Sun altitude
Rises 14:42:51 0° 27° (NNE) 3,332 7.4 -13.2°
Reaches altitude 10° 14:45:10 10° 28° (NNE) 2,407 6.7 -12.9°
Maximum altitude 14:50:30 78° 113° (ESE) 844 4.3 -12.3°
Drops below altitude 10° 14:55:53 10° 197° (SSW) 2,431 6.6 -11.6°
Sets 14:58:15 0° 198° (SSW) 3,368 7.3 -11.3°
